Regional Weather Roundup
Issued by NWS Bismarck, ND

Home | Current Version | Previous Version | Text Only | Print | Product List | Glossary On
Versions: 1 2 3 4 5 6 7 8 9 10 11 12 13 14 15 16 17 18 19 20 21 22 23 24 25 26 27 28 29 30 31 32 33 34 35 36 37 38 39 40 41 42 43 44 45 46 47 48 49 50
000
ASUS43 KBIS 301110
RWRBIS

NWR BROADCAST TEXT
NATIONAL WEATHER SERVICE BISMARCK ND
600 AM CDT SAT JUL 30 2016

NOTE: "FAIR" INDICATES FEW OR NO CLOUDS BELOW 12,000 FEET WITH NO
SIGNIFICANT WEATHER AND/OR OBSTRUCTIONS TO VISIBILITY.


CITY           SKY/WX    TMP DP  RH WIND       PRES   REMARKS
WILLISTON      CLEAR     56  53  90 CALM      29.89F
MINOT          CLEAR     64  60  87 S6        29.89F
MINOT AFB      CLEAR     56  55  97 SW5       29.88F
BISMARCK       TSTM      64  63  96 NE13      29.93F
DICKINSON      FOG       53  53 100 CALM      29.91S VSB 1/2
GARRISON         N/A     61  61 100 E5        29.90F
HETTINGER ARPT CLEAR     55  54  96 CALM      29.94F
JAMESTOWN      PTCLDY    63  59  87 S9        29.94F
BEACH          FAIR      50  50 100 CALM      29.95F
CARRINGTON     PTSUNNY   63  61  94 S9        29.95F
HAZEN          FAIR      63  59  88 SE12      29.91F
LINTON         FAIR      59  59 100 S15       29.94F
MANDAN         CLOUDY    63  63 100 E9        29.94S
OAKES            N/A    N/A N/A N/A MISG        N/A
STANLEY        FAIR      54  54 100 CALM      29.94S
WATFORD CITY     N/A    N/A N/A N/A MISG        N/A
$$

CITY           SKY/WX    TMP DP  RH WIND       PRES   REMARKS
GRAND FORKS    CLOUDY    65  61  87 SE6       29.94F
GRAND FORKS AF CLOUDY    63  62  94 SE8       29.95S
DEVILS LAKE    MOCLDY    66  62  87 S9        29.94S
FARGO          PTCLDY    66  60  81 S8        29.97S
CAVALIER       LGT RAIN  63  63 100 SE3       29.94S
GRAFTON        FAIR      61  61 100 CALM      29.97S
GWINNER        FAIR      63  61  94 S6        29.98S
LANGDON        FAIR      63  63 100 SE9       29.95S
ROLLA          PTSUNNY   57  57 100 SW3       29.94S FOG
$$

CITY           SKY/WX    TMP DP  RH WIND       PRES   REMARKS
ABERDEEN       PTCLDY    60  55  83 S7        29.98S
MOBRIDGE       CLEAR     66  57  72 S12       29.92F
BUFFALO          N/A     60  55  83 CALM      29.88S
RAPID CITY     CLEAR     53  51  93 NW3       29.95F
GLASGOW        CLEAR     60  52  74 E10       29.87F
SIDNEY         CLEAR     51  47  86 CALM      29.90S
WOLF POINT     CLEAR     56  52  86 E3        29.89F
GLENDIVE       CLEAR     55  51  86 N7        29.91
MILES CITY     CLEAR     61  52  72 NE7       29.89F
BAKER          CLEAR     56  53  90 SE3       29.94F
$$

CITY           SKY/WX    TMP DP  RH WIND       PRES   REMARKS
BILLINGS       PTCLDY    65  52  62 CALM      29.91F
GREAT FALLS    CLEAR     60  48  64 S3        29.85F
REGINA         CLEAR     52  52 100 E7        29.87F
ESTEVAN        PTCLDY    55  54  94 CALM      29.89F FOG
$$





USA.gov is the U.S. government's official web portal to all federal, state and local government web resources and services.